SCP
-0 -0 -0 -0 -0 -0 -0 -0 -0 -0 -0 -0 -0 -0 -0 0 0 0 0 -0 -0 -0 0 -0 0 0 -0 0 0 -0 -0 -0 0 0 -0 -0 0 -0 -0 -0 -0 -0 -0
-0 -0 -0 -0 -0 -0 -0 -0 -0 -0 0 0 -0 -0 -0 0 0 0 0 -0 0 0 -0 -0 0 0 0 0 0 0 -0 -0 -0 -0 0 0 0 0 0 0 0 -0 -0
-0 -0 -0 -0 -0 -0 -0 -0 -0 -0 -0 0 0 0 0 0 0 0 0 0 0 -0 -0 0 -0 0 -0 0 0 -0 0 0 0 -0 0 -0 0 0 -0 -0 -0 -0 -0
-0 -0 -0 -0 -0 -0 -0 -0 -0 -0 -0 -0 0 -0 0 0 0 -0 0 0 -0 -0 -0 0 0 0 -0 0 0 0 -0 -0 -0 0 0 0 0 0 0 0 -0 -0 -0
-0 -0 -0 -0 -0 -0 -0 -0 -0 -0 -0 -0 0 -0 0 0 0 0 0 0 0 -0 -0 0 0 0 0 0 -0 -0 -0 -0 -0 -0 0 0 -0 -0 0 -0 -0 0 -0
-0 -0 -0 -0 -0 -0 -0 -0 -1 -1 -1 -0 -0 -0 0 -0 0 0 0 0 0 -0 -0 -0 0 0 0 0 -0 -0 -0 -0 -0 -0 -0 -0 0 0 0 0 -0 -0 0
-0 -0 -0 -0 -0 -0 -0 -0 -1 -0 -0 -0 -0 -0 -0 0 0 0 0 0 0 0 -1 -0 0 0 0 0 -0 -0 0 0 0 0 -0 -0 -0 -0 -0 0 0 0 0
-0 -0 -0 -0 -0 -0 -0 -0 -0 -0 -0 -0 -0 -0 -0 -0 -0 0 0 0 0 0 -0 -0 -0 0 0 -0 -0 -0 0 -0 0 0 0 -0 -0 0 -0 0 0 0 0
-0 -0 -0 -0 -0 -0 -0 -0 -0 -0 -0 -0 -0 -0 0 -0 0 -0 0 -0 0 0 0 0 -0 0 0 -0 -0 -0 -0 0 0 0 0 0 0 0 -0 -0 0 0 0
-0 -0 -0 -0 -0 -0 -0 -0 -0 -0 -0 -0 -0 -0 0 0 0 0 0 0 0 0 0 0 -0 -0 -0 -0 -0 -0 -0 0 0 0 0 0 0 0 0 0 -0 -0 0
-0 -0 -0 -0 -0 -0 0 -0 0 -0 -0 -0 0 1 1 1 0 0 0 -0 0 0 0 0 0 0 0 0 -0 0 0 0 0 0 0 0 0 0 0 0 0 0 0
-0 0 0 0 0 0 0 0 0 0 -0 0 2 3 -0 0 0 0 0 -0 0 0 0 0 -0 0 0 0 0 0 0 0 0 0 0 0 0 0 0 0 0 0 0
0 0 0 0 0 0 0 0 0 0 0 0 0 -0 -0 0 0 -0 -0 0 0 0 -0 0 0 0 0 0 0 0 0 0 0 0 0 0 0 0 0 0 0 0 0
0 0 0 0 0 -0 -0 -0 0 0 0 0 0 0 0 -0 -0 -0 0 0 0 0 0 0 1 0 1 1 1 1 1 1 1 0 0 0 0 0 0 0 0 0 0
-0 -0 -0 -0 -0 -0 -0 -0 -0 0 1 1 1 1 0 0 0 0 0 0 0 0 0 0 0 0 1 1 2 3 3 2 2 1 1 1 0 0 0 0 0 0 0
-0 -0 -0 -0 -0 -0 -0 -0 0 0 0 1 1 0 0 0 0 0 0 0 0 1 1 1 1 1 1 1 1 2 2 2 0 0 0 0 0 0 0 0 0 0 0
-0 -0 -0 -0 -0 -0 -0 0 0 0 0 1 1 0 0 0 0 0 0 1 1 1 1 1 1 1 1 1 1 1 0 0 0 0 0 0 0 0 0 -0 0 0 0
0 -0 -0 0 0 0 0 0 0 0 1 1 1 1 1 1 1 1 1 1 1 1 1 1 1 1 1 1 1 0 0 0 0 0 0 0 0 0 0 0 0 0 0
0 -0 -0 0 0 0 0 0 -0 0 0 0 -0 0 0 0 0 0 0 0 0 1 1 1 1 1 1 1 0 0 0 0 0 0 0 0 0 0 0 -0 0 0 0
-0 0 -0 0 -0 -1 -0 -0 -0 0 0 -0 -0 -0 0 0 0 -0 -0 -0 -0 -0 0 0 1 1 1 0 0 0 1 1 1 0 0 0 0 0 0 0 0 -0 -0
0 0 0 -0 -0 -0 -0 -0 0 0 0 0 0 0 0 0 0 0 0 0 0 0 0 0 1 1 1 1 0 0 1 1 1 1 0 0 0 0 0 0 0 0 0
0 0 0 0 0 0 0 0 0 0 0 0 1 1 1 1 1 1 1 1 2 1 0 1 1 0 1 2 0 0 0 1 1 1 0 0 0 0 0 0 0 0 0
1 0 0 0 0 0 0 0 1 1 1 1 1 1 1 1 1 2 2 1 1 1 1 0 0 0 0 1 0 0 0 0 0 1 0 0 0 0 0 0 0 0 0
1 1 0 0 0 1 1 1 1 2 2 2 1 1 1 1 1 1 1 1 1 0 0 0 0 0 0 0 1 1 0 0 0 0 0 0 0 0 0 0 0 0 0
1 0 0 0 1 1 1 2 2 2 1 1 1 1 1 1 2 1 1 1 1 1 0 0 0 0 0 0 0 0 1 1 0 0 0 0 0 0 0 0 0 0 0
2 2 2 2 2 2 2 1 1 2 2 2 1 1 1 1 1 0 0 0 0 0 0 0 0 0 0 0 0 0 0 0 0 0 0 0 0 0 0 0 0 0 0
Wind_Speed_500mb
40 39 37 35 33 31 31 32 31 29 25 20 15 12 11 8 7 5 13 3 6 4 8 3 1 7 6 7 1 4 1 13 18 23 28 27 25 23 17 16 9 10 13
45 43 42 41 39 36 34 33 32 31 28 20 18 15 12 10 9 8 6 5 6 2 4 7 3 8 2 8 4 15 9 6 5 17 23 23 25 25 21 17 12 11 13
48 50 48 46 42 41 39 37 37 35 31 27 20 16 14 12 7 8 7 9 7 6 3 7 8 7 8 8 5 16 12 7 6 9 3 12 9 19 16 15 14 17 11
48 49 48 46 43 41 39 38 38 37 33 32 24 23 15 15 11 10 9 6 9 10 9 8 6 8 7 12 5 11 12 7 12 5 3 6 25 6 11 14 13 13 14
48 46 47 43 40 38 38 37 39 39 37 33 34 26 20 15 13 12 10 10 10 10 9 10 7 6 5 12 12 11 18 10 13 11 17 8 9 10 13 17 12 13 8
49 44 42 45 39 39 39 37 39 43 40 39 35 36 24 21 17 15 15 11 13 9 12 11 9 5 10 11 8 10 10 18 17 14 7 14 12 14 19 22 21 17 15
50 47 45 44 45 45 42 39 40 42 39 39 36 37 35 27 22 19 14 15 13 13 20 13 10 9 10 13 12 14 14 11 14 17 12 13 15 15 7 23 24 27 22
54 53 50 47 47 48 45 41 39 40 38 37 36 33 33 28 23 22 19 16 13 12 10 8 11 13 17 12 13 11 8 14 11 16 21 16 14 14 13 15 21 23 24
50 49 51 49 47 48 45 44 42 43 41 38 40 39 35 34 28 25 20 19 21 15 21 21 12 17 16 15 16 12 17 23 12 13 13 22 16 17 19 17 19 21 29
47 46 47 47 46 46 43 42 43 44 44 42 42 44 40 36 37 32 28 26 21 23 20 17 16 18 20 18 18 16 17 17 15 11 22 15 16 19 19 21 23 25 25
45 45 43 44 46 43 42 39 44 47 54 48 44 39 36 34 32 31 32 33 31 30 27 27 24 23 24 24 21 21 21 23 19 21 22 16 27 17 16 19 22 23 23
41 41 43 42 43 46 51 49 50 50 53 45 43 29 33 29 32 30 31 31 33 34 35 35 34 32 30 30 29 25 26 28 23 22 25 23 21 24 31 21 26 24 25
22 32 41 43 46 47 52 52 52 44 41 48 43 30 41 44 35 31 29 28 32 35 35 38 40 39 36 35 34 33 31 33 30 29 25 23 27 32 25 27 24 23 27
32 38 39 42 44 47 57 56 41 33 31 25 23 24 31 28 27 22 28 32 32 35 41 42 44 43 43 41 39 40 42 39 36 34 29 26 25 30 32 29 30 31 26
36 42 42 44 43 42 37 35 30 27 30 34 26 28 28 30 29 24 21 27 33 38 41 42 44 43 44 44 50 50 52 50 43 30 28 24 26 33 37 26 28 25 34
43 45 45 42 41 37 31 29 25 26 29 35 30 29 30 28 28 34 36 36 38 38 41 43 44 46 46 50 54 59 57 40 20 7 39 33 32 43 44 38 35 32 39
44 46 43 40 37 36 35 32 28 23 20 18 17 16 15 13 10 10 13 18 25 27 33 40 45 48 52 53 59 57 55 28 18 65 41 36 39 40 44 47 42 46 40
44 47 47 44 41 40 35 32 27 21 20 20 20 16 12 8 4 0 4 9 15 20 23 28 35 42 48 50 55 55 59 70 61 54 41 39 36 34 35 39 44 45 49
48 50 50 53 51 33 30 34 33 30 26 23 23 18 13 8 4 2 6 10 14 19 25 29 32 31 33 38 46 51 51 64 65 61 41 53 48 50 43 48 39 43 45
49 51 51 51 45 46 34 37 36 33 29 25 23 19 15 13 10 9 12 15 18 21 24 29 33 36 41 38 37 33 38 48 56 54 58 54 59 65 54 57 50 52 47
49 48 48 48 45 44 38 32 29 26 24 22 19 14 8 3 2 7 13 19 23 29 35 36 32 35 39 45 41 38 37 38 37 40 44 58 56 64 63 59 57 56 44
48 48 47 41 38 33 28 24 20 17 17 16 13 12 10 6 11 16 22 27 30 29 36 41 38 30 34 44 46 46 39 39 37 37 39 41 43 58 66 62 64 61 51
44 43 42 39 33 28 22 20 20 15 16 13 11 13 16 15 20 25 29 31 33 34 41 44 43 39 33 33 40 46 42 38 40 43 44 49 49 42 51 73 64 67 64
38 36 35 35 30 23 20 18 19 24 21 22 18 16 18 19 26 20 30 35 39 43 44 42 36 36 32 30 30 36 43 35 39 43 47 51 58 57 54 42 73 71 78
31 32 31 28 24 18 16 16 17 17 15 15 17 21 23 23 27 34 35 39 43 41 45 40 36 35 35 37 38 40 36 38 41 35 48 58 61 73 69 65 57 78 88
24 22 23 21 18 16 17 13 11 9 11 14 18 20 22 30 34 38 43 41 40 34 39 42 39 34 40 47 49 52 54 53 51 51 51 52 56 63 67 67 67 69 91
Wind_Direction_500mb
190 187 189 184 181 181 182 187 189 192 191 193 195 185 193 194 212 242 256 248 208 221 140 206 276 121 204 223 68 36 119 79 92 97 91 86 91 117 104 100 123 179 181
197 197 196 195 194 193 192 193 193 199 194 198 198 198 206 205 234 140 246 211 239 254 203 189 265 199 275 308 239 194 185 123 115 112 100 103 104 103 90 94 84 72 77
202 198 199 201 199 199 200 202 200 205 204 193 206 208 201 209 227 245 268 245 223 249 220 251 208 230 179 241 310 174 172 166 187 244 59 163 143 124 107 100 106 118 112
199 200 198 199 201 202 204 205 205 205 212 206 206 209 210 213 221 225 225 215 244 243 240 244 228 164 197 235 248 209 193 209 183 210 251 350 152 136 140 128 120 130 132
197 201 198 195 203 199 203 205 205 206 205 218 198 221 210 221 221 221 246 244 264 217 225 241 234 198 161 234 195 209 199 228 265 228 198 173 204 207 168 160 162 155 155
198 196 201 195 195 197 199 201 204 211 209 212 215 206 217 213 222 226 229 240 236 248 245 224 234 210 208 234 225 210 219 205 212 236 281 224 215 211 191 181 171 176 183
190 194 195 195 192 194 197 199 202 206 210 211 217 218 220 219 224 228 236 234 244 249 246 276 250 237 227 224 206 248 205 238 217 235 217 247 253 253 255 179 173 184 182
194 192 194 193 193 194 195 194 196 199 203 208 214 219 221 218 226 230 218 235 233 228 171 265 216 242 248 235 238 226 217 236 234 238 215 217 232 241 233 234 184 182 183
195 191 194 194 194 193 192 193 193 198 202 204 212 217 220 210 217 219 232 232 233 244 278 268 226 231 235 228 238 198 236 229 240 251 246 212 215 221 221 220 218 201 207
193 195 197 193 194 191 192 194 193 192 197 199 213 215 216 216 216 217 223 219 227 239 232 241 227 241 237 231 230 228 248 238 228 221 250 202 210 223 214 216 223 232 233
191 196 193 195 193 187 177 200 200 194 204 208 218 208 208 215 221 227 238 242 236 232 238 242 240 235 240 235 237 214 230 255 240 217 242 236 208 209 228 225 224 229 232
187 195 188 190 186 187 188 189 197 199 210 206 215 227 228 223 219 227 232 240 244 247 249 251 253 248 242 242 239 237 226 247 243 241 241 248 241 228 211 216 222 221 230
196 191 183 180 183 180 182 193 201 199 207 207 221 248 226 222 226 224 236 235 241 246 242 252 252 254 247 243 241 241 238 233 239 242 248 250 245 243 221 226 221 236 218
165 171 169 175 174 176 188 198 199 201 200 200 220 219 227 231 235 243 243 242 246 243 249 249 254 255 252 244 240 244 244 231 237 241 246 248 247 250 245 231 224 203 216
153 158 163 164 168 173 182 190 191 192 206 202 208 219 219 227 236 240 239 242 253 257 259 256 253 252 252 247 245 241 240 244 232 240 245 251 251 254 242 229 234 210 217
148 152 153 158 159 164 169 177 183 194 201 217 221 231 242 242 254 278 280 268 265 261 259 256 256 256 251 252 250 244 243 238 219 330 340 276 271 265 255 228 223 222 217
145 148 153 152 152 154 153 146 148 164 179 185 192 210 223 238 251 273 281 274 268 268 263 266 267 263 262 253 248 257 246 191 74 343 333 324 261 260 243 240 221 231 237
151 148 146 144 140 136 139 139 142 141 136 133 130 127 128 124 129 227 299 302 306 299 287 281 279 275 272 267 261 262 251 260 270 254 265 238 246 254 223 230 229 229 231
151 146 143 136 137 132 139 138 135 138 136 133 125 124 124 120 114 3 311 306 304 298 292 294 301 290 288 282 271 272 267 264 255 256 246 245 255 255 231 227 235 245 242
152 149 146 145 143 156 156 145 139 134 134 127 115 111 98 89 75 43 22 0 350 332 309 292 289 280 283 282 284 279 274 264 266 268 256 246 248 239 240 236 230 237 233
156 153 151 151 150 156 160 153 161 165 161 155 154 151 152 161 305 323 327 326 324 318 328 322 298 283 291 287 283 279 276 274 272 263 257 248 249 236 242 234 238 239 234
161 159 159 159 159 160 166 171 175 174 173 171 167 195 210 199 262 293 304 308 318 323 319 313 308 299 295 277 300 284 267 271 268 265 267 260 248 238 245 247 241 236 228
168 166 167 168 171 172 181 191 195 196 205 219 231 241 255 269 283 297 313 315 312 302 306 308 300 292 291 285 285 306 290 265 262 257 259 257 263 250 249 245 241 233 225
176 176 179 181 183 187 198 202 212 210 212 226 239 259 272 284 297 302 303 301 304 307 308 307 297 291 291 293 302 299 297 286 256 254 256 259 262 264 257 253 236 232 224
182 186 189 190 184 199 203 207 213 215 206 222 243 259 280 285 291 301 301 302 302 301 304 303 297 290 286 285 291 286 284 287 291 272 259 253 256 257 254 251 244 234 226
150 160 175 176 178 178 181 180 177 185 208 239 273 275 287 291 294 297 299 301 305 311 311 311 312 302 285 282 282 282 279 276 271 268 264 260 258 254 254 253 250 242 227
Wind_Speed_850mb
40 39 37 35 33 31 31 32 31 29 25 20 15 12 11 8 7 5 13 3 6 4 8 3 1 7 6 7 1 4 1 13 18 23 28 27 25 23 17 16 9 10 13
45 43 42 41 39 36 34 33 32 31 28 20 18 15 12 10 9 8 6 5 6 2 4 7 3 8 2 8 4 15 9 6 5 17 23 23 25 25 21 17 12 11 13
48 50 48 46 42 41 39 37 37 35 31 27 20 16 14 12 7 8 7 9 7 6 3 7 8 7 8 8 5 16 12 7 6 9 3 12 9 19 16 15 14 17 11
48 49 48 46 43 41 39 38 38 37 33 32 24 23 15 15 11 10 9 6 9 10 9 8 6 8 7 12 5 11 12 7 12 5 3 6 25 6 11 14 13 13 14
48 46 47 43 40 38 38 37 39 39 37 33 34 26 20 15 13 12 10 10 10 10 9 10 7 6 5 12 12 11 18 10 13 11 17 8 9 10 13 17 12 13 8
49 44 42 45 39 39 39 37 39 43 40 39 35 36 24 21 17 15 15 11 13 9 12 11 9 5 10 11 8 10 10 18 17 14 7 14 12 14 19 22 21 17 15
50 47 45 44 45 45 42 39 40 42 39 39 36 37 35 27 22 19 14 15 13 13 20 13 10 9 10 13 12 14 14 11 14 17 12 13 15 15 7 23 24 27 22
54 53 50 47 47 48 45 41 39 40 38 37 36 33 33 28 23 22 19 16 13 12 10 8 11 13 17 12 13 11 8 14 11 16 21 16 14 14 13 15 21 23 24
50 49 51 49 47 48 45 44 42 43 41 38 40 39 35 34 28 25 20 19 21 15 21 21 12 17 16 15 16 12 17 23 12 13 13 22 16 17 19 17 19 21 29
47 46 47 47 46 46 43 42 43 44 44 42 42 44 40 36 37 32 28 26 21 23 20 17 16 18 20 18 18 16 17 17 15 11 22 15 16 19 19 21 23 25 25
45 45 43 44 46 43 42 39 44 47 54 48 44 39 36 34 32 31 32 33 31 30 27 27 24 23 24 24 21 21 21 23 19 21 22 16 27 17 16 19 22 23 23
41 41 43 42 43 46 51 49 50 50 53 45 43 29 33 29 32 30 31 31 33 34 35 35 34 32 30 30 29 25 26 28 23 22 25 23 21 24 31 21 26 24 25
22 32 41 43 46 47 52 52 52 44 41 48 43 30 41 44 35 31 29 28 32 35 35 38 40 39 36 35 34 33 31 33 30 29 25 23 27 32 25 27 24 23 27
32 38 39 42 44 47 57 56 41 33 31 25 23 24 31 28 27 22 28 32 32 35 41 42 44 43 43 41 39 40 42 39 36 34 29 26 25 30 32 29 30 31 26
36 42 42 44 43 42 37 35 30 27 30 34 26 28 28 30 29 24 21 27 33 38 41 42 44 43 44 44 50 50 52 50 43 30 28 24 26 33 37 26 28 25 34
43 45 45 42 41 37 31 29 25 26 29 35 30 29 30 28 28 34 36 36 38 38 41 43 44 46 46 50 54 59 57 40 20 7 39 33 32 43 44 38 35 32 39
44 46 43 40 37 36 35 32 28 23 20 18 17 16 15 13 10 10 13 18 25 27 33 40 45 48 52 53 59 57 55 28 18 65 41 36 39 40 44 47 42 46 40
44 47 47 44 41 40 35 32 27 21 20 20 20 16 12 8 4 0 4 9 15 20 23 28 35 42 48 50 55 55 59 70 61 54 41 39 36 34 35 39 44 45 49
48 50 50 53 51 33 30 34 33 30 26 23 23 18 13 8 4 2 6 10 14 19 25 29 32 31 33 38 46 51 51 64 65 61 41 53 48 50 43 48 39 43 45
49 51 51 51 45 46 34 37 36 33 29 25 23 19 15 13 10 9 12 15 18 21 24 29 33 36 41 38 37 33 38 48 56 54 58 54 59 65 54 57 50 52 47
49 48 48 48 45 44 38 32 29 26 24 22 19 14 8 3 2 7 13 19 23 29 35 36 32 35 39 45 41 38 37 38 37 40 44 58 56 64 63 59 57 56 44
48 48 47 41 38 33 28 24 20 17 17 16 13 12 10 6 11 16 22 27 30 29 36 41 38 30 34 44 46 46 39 39 37 37 39 41 43 58 66 62 64 61 51
44 43 42 39 33 28 22 20 20 15 16 13 11 13 16 15 20 25 29 31 33 34 41 44 43 39 33 33 40 46 42 38 40 43 44 49 49 42 51 73 64 67 64
38 36 35 35 30 23 20 18 19 24 21 22 18 16 18 19 26 20 30 35 39 43 44 42 36 36 32 30 30 36 43 35 39 43 47 51 58 57 54 42 73 71 78
31 32 31 28 24 18 16 16 17 17 15 15 17 21 23 23 27 34 35 39 43 41 45 40 36 35 35 37 38 40 36 38 41 35 48 58 61 73 69 65 57 78 88
24 22 23 21 18 16 17 13 11 9 11 14 18 20 22 30 34 38 43 41 40 34 39 42 39 34 40 47 49 52 54 53 51 51 51 52 56 63 67 67 67 69 91
Wind_Direction_850mb
190 187 189 184 181 181 182 187 189 192 191 193 195 185 193 194 212 242 256 248 208 221 140 206 276 121 204 223 68 36 119 79 92 97 91 86 91 117 104 100 123 179 181
197 197 196 195 194 193 192 193 193 199 194 198 198 198 206 205 234 140 246 211 239 254 203 189 265 199 275 308 239 194 185 123 115 112 100 103 104 103 90 94 84 72 77
202 198 199 201 199 199 200 202 200 205 204 193 206 208 201 209 227 245 268 245 223 249 220 251 208 230 179 241 310 174 172 166 187 244 59 163 143 124 107 100 106 118 112
199 200 198 199 201 202 204 205 205 205 212 206 206 209 210 213 221 225 225 215 244 243 240 244 228 164 197 235 248 209 193 209 183 210 251 350 152 136 140 128 120 130 132
197 201 198 195 203 199 203 205 205 206 205 218 198 221 210 221 221 221 246 244 264 217 225 241 234 198 161 234 195 209 199 228 265 228 198 173 204 207 168 160 162 155 155
198 196 201 195 195 197 199 201 204 211 209 212 215 206 217 213 222 226 229 240 236 248 245 224 234 210 208 234 225 210 219 205 212 236 281 224 215 211 191 181 171 176 183
190 194 195 195 192 194 197 199 202 206 210 211 217 218 220 219 224 228 236 234 244 249 246 276 250 237 227 224 206 248 205 238 217 235 217 247 253 253 255 179 173 184 182
194 192 194 193 193 194 195 194 196 199 203 208 214 219 221 218 226 230 218 235 233 228 171 265 216 242 248 235 238 226 217 236 234 238 215 217 232 241 233 234 184 182 183
195 191 194 194 194 193 192 193 193 198 202 204 212 217 220 210 217 219 232 232 233 244 278 268 226 231 235 228 238 198 236 229 240 251 246 212 215 221 221 220 218 201 207
193 195 197 193 194 191 192 194 193 192 197 199 213 215 216 216 216 217 223 219 227 239 232 241 227 241 237 231 230 228 248 238 228 221 250 202 210 223 214 216 223 232 233
191 196 193 195 193 187 177 200 200 194 204 208 218 208 208 215 221 227 238 242 236 232 238 242 240 235 240 235 237 214 230 255 240 217 242 236 208 209 228 225 224 229 232
187 195 188 190 186 187 188 189 197 199 210 206 215 227 228 223 219 227 232 240 244 247 249 251 253 248 242 242 239 237 226 247 243 241 241 248 241 228 211 216 222 221 230
196 191 183 180 183 180 182 193 201 199 207 207 221 248 226 222 226 224 236 235 241 246 242 252 252 254 247 243 241 241 238 233 239 242 248 250 245 243 221 226 221 236 218
165 171 169 175 174 176 188 198 199 201 200 200 220 219 227 231 235 243 243 242 246 243 249 249 254 255 252 244 240 244 244 231 237 241 246 248 247 250 245 231 224 203 216
153 158 163 164 168 173 182 190 191 192 206 202 208 219 219 227 236 240 239 242 253 257 259 256 253 252 252 247 245 241 240 244 232 240 245 251 251 254 242 229 234 210 217
148 152 153 158 159 164 169 177 183 194 201 217 221 231 242 242 254 278 280 268 265 261 259 256 256 256 251 252 250 244 243 238 219 330 340 276 271 265 255 228 223 222 217
145 148 153 152 152 154 153 146 148 164 179 185 192 210 223 238 251 273 281 274 268 268 263 266 267 263 262 253 248 257 246 191 74 343 333 324 261 260 243 240 221 231 237
151 148 146 144 140 136 139 139 142 141 136 133 130 127 128 124 129 227 299 302 306 299 287 281 279 275 272 267 261 262 251 260 270 254 265 238 246 254 223 230 229 229 231
151 146 143 136 137 132 139 138 135 138 136 133 125 124 124 120 114 3 311 306 304 298 292 294 301 290 288 282 271 272 267 264 255 256 246 245 255 255 231 227 235 245 242
152 149 146 145 143 156 156 145 139 134 134 127 115 111 98 89 75 43 22 0 350 332 309 292 289 280 283 282 284 279 274 264 266 268 256 246 248 239 240 236 230 237 233
156 153 151 151 150 156 160 153 161 165 161 155 154 151 152 161 305 323 327 326 324 318 328 322 298 283 291 287 283 279 276 274 272 263 257 248 249 236 242 234 238 239 234
161 159 159 159 159 160 166 171 175 174 173 171 167 195 210 199 262 293 304 308 318 323 319 313 308 299 295 277 300 284 267 271 268 265 267 260 248 238 245 247 241 236 228
168 166 167 168 171 172 181 191 195 196 205 219 231 241 255 269 283 297 313 315 312 302 306 308 300 292 291 285 285 306 290 265 262 257 259 257 263 250 249 245 241 233 225
176 176 179 181 183 187 198 202 212 210 212 226 239 259 272 284 297 302 303 301 304 307 308 307 297 291 291 293 302 299 297 286 256 254 256 259 262 264 257 253 236 232 224
182 186 189 190 184 199 203 207 213 215 206 222 243 259 280 285 291 301 301 302 302 301 304 303 297 290 286 285 291 286 284 287 291 272 259 253 256 257 254 251 244 234 226
150 160 175 176 178 178 181 180 177 185 208 239 273 275 287 291 294 297 299 301 305 311 311 311 312 302 285 282 282 282 279 276 271 268 264 260 258 254 254 253 250 242 227